Zurück zum Katalog

COSMOS 839 DEB

AktivUNKNOWN
NORAD 19439·DEBRIS·🇷🇺 Russia

Gestartet Jul 8, 1976 von Plesetsk Cosmodrome

Loading…

Nächste Überflüge (nächste 24 Stunden)

TLE

AktuellSource: Space-Track

Epoche: Sep 12, 2026, 18:24 UTC

1 19439U 76067BS  26255.76680744  .00000412  00000-0  16031-2 0  9994
2 19439  65.8730  15.3080 0694928 178.5224 336.5142 12.36358679593620

Verfolge COSMOS 839 DEB in Echtzeit mit AllMySat

Download on the App Store